Location: �clusier
(49.9361°N, 2.7869°E)
Time: 02:48:08
(UTC+00:00)

Cosmos 1943 Rocket - Pass Details

Date: 03 November 2021
Orbit: 811 x 844 km, 71.0° (Epoch: 07 December)

Event Time Altitude Azimuth Distance (km) Brightness Sun altitude
Rises 17:12:26 0° 333° (NNW) 3,415 5.5 -8.5°
Reaches altitude 10° 17:15:49 10° 353° (N) 2,476 4.6 -9.0°
Maximum altitude 17:19:30 17° 33° (NNE) 1,998 3.8 -9.6°
Enters shadow 17:22:25 12° 68° (ENE) 2,299 3.8 -10.1°
